Regional Weather Roundup
Issued by NWS

Home | Current Version | Previous Version | Graphics & Text | Print | Product List | Glossary On
Versions: 1 2 3 4 5 6 7 8 9 10 11 12 13 14 15 16 17 18 19 20 21 22 23 24 25 26 27 28 29 30 31 32 33 34 35 36 37 38 39 40 41 42 43 44 45 46 47 48 49 50
000
ASUS43 KOAX 270810
RWRNE

WEATHER ROUNDUP FOR NEBRASKA
NATIONAL WEATHER SERVICE OMAHA NE
300 AM CDT WED MAY 27 2015

NOTES: SATELLITE DATA IS BEING USED TO AUGMENT CLOUD COVER ABOVE
       12000 FEET.
       "FAIR" INDICATES FEW OR NO CLOUDS BELOW 12,000 FEET WITH NO
       SIGNIFICANT WEATHER AND/OR OBSTRUCTIONS TO VISIBILITY.

  * THESE STATIONS DO NOT REPORT WEATHER SUCH AS RAIN...SNOW OR FOG.

NEZ001>004-019>022-054>056-270900-
NEBRASKA PANHANDLE

CITY           SKY/WX    TMP DP  RH WIND       PRES   REMARKS
SCOTTSBLUFF    CLOUDY    56  53  90 E7        30.03F
ALLIANCE       CLOUDY    53  49  86 S7        30.04R
CHADRON        CLOUDY    57  52  83 SW8       29.99F
KIMBALL          N/A    N/A N/A N/A MISG        N/A
SIDNEY         CLOUDY    52  49  89 S9        30.06S
$$

NEZ057>060-069>072-079>082-270900-
SOUTHWEST NEBRASKA

CITY           SKY/WX    TMP DP  RH WIND       PRES   REMARKS
NORTH PLATTE   MOCLDY    49  46  90 CALM      30.06R
IMPERIAL       PTCLDY    52  48  86 E5        30.06F
LEXINGTON      PTCLDY    49  46  92 CALM      30.04S
MCCOOK         PTCLDY    54  47  77 S5        30.05S
OGALLALA       CLOUDY    56  49  79 CALM      30.05F
$$

NEZ005>010-023>029-035>040-094-270900-
NORTH CENTRAL NEBRASKA

CITY           SKY/WX    TMP DP  RH WIND       PRES   REMARKS
VALENTINE      CLEAR     48  45  89 SW6       30.02R
AINSWORTH      CLEAR     53  48  81 SW5       30.02R
BROKEN BOW     PTCLDY    52  47  83 CALM      30.03R
O`NEILL        CLEAR     53  50  90 SW5       29.99R
ORD            CLEAR     52  47  83 NW3       30.01R
THEDFORD       PTCLDY    49  46  90 W5        30.05R
$$

NEZ041-046>049-061>064-073>077-083>087-270900-
SOUTH CENTRAL NEBRASKA

CITY           SKY/WX    TMP DP  RH WIND       PRES   REMARKS
GRAND ISLAND   CLEAR     53  47  79 W8        30.02R
AURORA         CLEAR     51  49  92 W8        30.01S
HASTINGS       CLEAR     54  47  77 W5        30.02S
HEBRON         CLEAR     52  49  87 CALM      30.03R
HOLDREGE       PTCLDY    52  47  82 SW3       30.04S
KEARNEY *      CLEAR     55  46  71 W5        30.03S
YORK           CLEAR     54  50  87 W7        30.00S
$$

NEZ011>018-030>034-042>045-270900-
NORTHEAST NEBRASKA

CITY           SKY/WX    TMP DP  RH WIND       PRES   REMARKS
NORFOLK        CLEAR     54  50  86 W8        29.96R
ALBION         CLEAR     52  47  84 NW5       29.99R
BLAIR          CLEAR     56  53  88 W7        29.95R
COLUMBUS *       N/A    N/A N/A N/A MISG        N/A
FREMONT        CLEAR     55  52  92 W6        29.96R
TEKAMAH        CLEAR     55  52  89 CALM      29.94R
WAYNE          CLEAR     50  48  92 CALM      29.96R
$$

NEZ050>053-065>068-078-088>093-270900-
SOUTHEAST NEBRASKA

CITY           SKY/WX    TMP DP  RH WIND       PRES   REMARKS
LINCOLN        CLEAR     57  51  80 CALM      29.99R
OMAHA EPPLEY   CLEAR     56  53  90 CALM      29.94S
BEATRICE       CLEAR     54  51  90 SW3       30.01R
FALLS CITY     CLEAR     58  54  86 W7        29.97R
NEBRASKA CITY  CLEAR     58  52  81 W9        29.97R
PLATTSMOUTH    CLEAR     56  51  84 W6        29.96R
$$

NEZ044-045-051>053-067-270900-
OMAHA AREA

CITY           SKY/WX    TMP DP  RH WIND       PRES   REMARKS
OMAHA EPPLEY   CLEAR     56  53  90 CALM      29.94S
BLAIR          CLEAR     56  53  88 W7        29.95R
FREMONT        CLEAR     55  52  92 W6        29.96R
MILLARD        CLEAR     54  53  96 CALM      29.95R FOG
OFFUTT AFB     CLEAR     55  53  94 SW5       29.94S
PLATTSMOUTH    CLEAR     56  51  84 W6        29.96R
WAHOO          FAIR      58  52  80 W7        29.96R
$$



USA.gov is the U.S. government's official web portal to all federal, state and local government web resources and services.